Location: Segheria
(44.2500°N, 10.4333°E)
Time: 19:56:26
(UTC+00:00)

Daily predictions for brighter satellites

Satellite Brightness Start Highest point End
(mag) Time Altitude Azimuth Time Altitude Azimuth Time Altitude Azimuth
CZ-4C R/B 4.4 18:51:33 10° NNW 18:56:53 23° NNE 19:02:54 10° E
OE (NEXTSAT) 4.5 18:57:57 10° W 19:01:25 78° NNW 19:04:53 10° ENE
Sich 1 4.4 18:58:40 10° NNE 19:02:04 22° ENE 19:05:28 10° ESE
MOS 1 4.4 19:02:21 10° SSE 19:07:55 63° ENE 19:13:32 10° N
Lacrosse 5 rocket 4.2 19:09:38 10° W 19:11:12 12° WSW 19:12:49 10° SW
MOS 1-B Rocket 4.4 19:05:29 10° NNE 19:13:09 72° ESE 19:19:36 10° S
SJ-6B 3.1 19:15:13 10° S 19:19:03 69° W 19:22:59 10° NNW
SL-08 ROCKET BODY 4.3 19:19:51 10° N 19:25:47 77° E 19:31:37 10° SSE
USA 290 3.6 19:25:24 10° N 19:28:10 25° ENE 19:30:10 14° ESE
Ariane Rocket 3.0 19:23:40 10° SSE 19:28:43 88° ENE 19:33:49 10° NNW
Cosmos 2263 Rocket 4.4 19:27:10 10° WSW 19:31:58 29° NW 19:36:49 10° N
FALCON 9 DEB 3.1 19:30:32 10° WNW 19:33:33 57° SW 19:35:41 17° SE
IRIS 4.2 19:31:22 10° WSW 19:33:38 42° S 19:35:32 17° ESE
Cosmos 1606 2.8 19:30:41 10° S 19:34:26 80° W 19:38:14 10° N
CZ-2C R/B 4.5 19:31:35 10° NNE 19:35:35 32° E 19:39:20 12° SSE
Cosmos 1844 Rocket 2.6 19:30:57 10° SSW 19:36:29 76° ESE 19:42:05 10° NNE
SPOT 1/Viking Rocket 4.3 19:36:09 14° SE 19:40:04 37° ENE 19:44:49 10° N
SL-4 R/B 2.4 19:37:48 10° WNW 19:42:10 66° SW 19:45:35 18° SE
Cosmos 1805 Rocket 3.5 19:39:11 10° N 19:43:32 77° E 19:47:34 12° SSE
Cosmos 1354 Rocket 4.4 19:40:19 10° S 19:45:11 41° ESE 19:50:05 10° NE
Cosmos 1386 Rocket 4.4 19:39:18 10° N 19:45:20 73° E 19:51:19 10° SSE
X-37B 0.7 19:42:12 10° W 19:45:24 75° N 19:47:53 16° E
ARIANE 5 R/B 3.9 19:43:07 16° ESE 19:45:32 25° ENE 19:49:03 10° NNE
Cosmos 1633 Rocket 3.8 19:47:55 10° N 19:51:59 35° ENE 19:54:17 21° SE
Cosmos 1745 Rocket 4.0 19:46:21 10° N 19:52:36 85° E 19:58:40 10° S
SPOT 3 Rocket 3.5 19:49:00 14° SSE 19:53:30 77° ENE 19:58:40 10° N
Cosmos 1437 4.5 19:54:17 15° ENE 19:54:17 15° ENE 19:55:29 10° NE
Cosmos 1709 Rocket 4.2 19:49:25 10° N 19:55:24 52° ENE 19:59:47 18° SSE
Resurs 1-3 4.3 19:51:30 10° S 19:55:46 52° W 20:00:05 10° NNW
Landsat 7 3.8 19:52:36 17° SSE 19:56:18 71° ENE 20:01:04 10° N
Cosmos 1844 3.7 19:50:58 10° SSW 19:56:43 88° ESE 20:02:26 10° NNE
Cosmos 1812 4.4 19:56:30 16° E 19:56:47 16° E 19:59:15 10° NE
Cosmos 968 Rocket 4.0 19:52:19 10° SSW 19:57:31 62° WNW 20:02:43 10° NNE
BREEZE-M DEB (TANK) 4.0 19:55:05 10° WNW 19:59:23 84° SSW 20:06:54 14° ESE
ATLAS 5 CENTAUR R/B 2.6 19:55:44 10° NNW 20:01:17 62° NE 20:05:41 21° SE
NOSS 3-3 (A) 4.2 19:56:17 10° S 20:01:34 42° ESE 20:07:28 10° NE
NOSS 3-3 (C) 4.2 19:56:24 10° S 20:01:41 42° ESE 20:07:35 10° NE
Cosmos 1328 Rocket 4.2 19:59:49 22° SE 20:01:58 36° E 20:06:03 10° NNE
Cosmos 1486 Rocket 4.4 19:59:44 10° SSW 20:05:01 67° WNW 20:10:22 10° NNE
IGS 5A 3.5 20:04:31 18° S 20:07:34 77° WSW 20:11:44 10° NNW
Meteor 1-26 Rocket 4.3 20:02:17 11° S 20:07:39 61° E 20:13:08 10° NNE
CARTOSAT-1 4.3 20:07:02 25° ESE 20:08:53 38° ENE 20:12:54 10° N
Cosmos 2315 Rocket 4.1 20:04:39 13° S 20:10:17 61° E 20:16:34 10° NNE
Cosmos 1833 Rocket 3.8 20:05:55 10° N 20:10:53 30° NE 20:14:00 19° E
CRYOSAT 2 4.4 20:07:54 22° SSE 20:10:58 62° E 20:15:49 10° N
S3M 4.3 20:04:41 10° SSW 20:11:03 74° W 20:17:26 10° N
BREEZE-M R/B 2.3 20:10:38 10° WSW 20:13:09 56° NNW 20:15:12 14° ENE
Cosmos 1666 4.3 20:14:17 10° NNE 20:16:59 19° ENE 20:17:20 18° E
Cosmos 1666 Rocket 3.5 20:13:13 10° N 20:17:39 81° E 20:19:57 28° SSE
Meteor 2-17 Rocket 4.4 20:14:33 10° N 20:20:46 86° E 20:25:05 21° S
Cosmos 1933 3.9 20:17:33 10° SSW 20:21:32 58° W 20:25:32 10° N
USA 245 2.4 20:23:48 56° NNE 20:23:48 56° NNE 20:25:42 10° N
Cosmos 783 Rocket 4.5 20:21:44 10° NNW 20:27:00 74° ENE 20:29:28 32° SSE
Cosmos 1242 Rocket 3.2 20:24:04 13° SSW 20:27:08 55° WNW 20:30:39 10° N
BREEZE M DEB (TANK) 3.0 20:28:59 10° WNW 20:33:09 36° N 20:34:07 25° NE
Resurs 01 Rocket 2.9 20:29:42 13° SSW 20:33:11 37° W 20:37:20 10° NNW
Cosmos 773 Rocket 4.0 20:29:31 10° NNW 20:34:50 69° ENE 20:37:01 35° SE
Spot 2 Rocket 3.4 20:34:12 32° SSE 20:36:38 86° ENE 20:41:43 10° NNW
SJ 16-02 2.5 20:38:19 27° E 20:38:19 27° E 20:41:37 10° NE
Sich 1 4.5 20:35:54 10° NNW 20:39:48 34° W 20:43:01 14° SSW
Cosmos 2228 Rocket 4.5 20:40:06 22° E 20:40:06 22° E 20:43:19 10° NE
DELTA 2 R/B (1) 4.2 20:35:24 10° W 20:40:32 39° SSW 20:41:51 34° SSE
COSMOS 2406 3.6 20:35:56 10° NNW 20:41:28 50° ENE 20:43:43 32° ESE
Meteor 2-6 Rocket 4.3 20:41:14 36° SSE 20:43:06 53° E 20:48:26 10° NNE
Cosmos 2082 Rocket 3.5 20:39:14 10° N 20:44:06 29° NE 20:46:28 22° E
USA 306 4.5 20:40:37 10° NW 20:44:25 30° NNE 20:47:01 17° ENE
Cosmos 1782 3.3 20:43:16 22° SSW 20:45:37 57° W 20:49:34 10° N
Cosmos 1500 3.0 20:42:51 10° N 20:46:38 86° E 20:47:10 64° SSE
CZ-4C R/B 3.2 20:39:35 10° NNW 20:46:46 65° NE 20:51:18 29° ESE
ERS-1 Rocket 2.9 20:50:52 42° SSE 20:52:34 80° ENE 20:57:37 10° NNW
SPOT 5 2.9 20:52:52 43° SSE 20:54:33 82° ENE 20:59:48 10° NNW
H-2A R/B 3.6 20:53:42 10° NNE 20:57:49 52° E 20:57:49 52° E
Cosmos 1271 Rocket 3.4 21:00:22 43° ENE 21:00:22 43° ENE 21:03:45 10° NNE
Meteor 1-11 Rocket 4.3 20:55:19 10° N 21:01:04 47° ENE 21:02:44 37° ESE
Cosmos 1151 Rocket 4.2 20:58:02 16° SW 21:01:07 41° WNW 21:05:17 10° N
Cosmos 1777 Rocket 3.9 20:58:39 29° SSW 21:01:23 89° SE 21:06:37 10° NNE
Terra 1.8 21:02:23 53° SE 21:03:23 71° ENE 21:08:08 10° N
Cosmos 2278 Rocket 2.1 21:05:44 38° S 21:07:58 73° ESE 21:13:38 10° NNE
USA 307 4.1 21:05:54 10° NW 21:09:53 36° NNE 21:11:26 27° ENE
Cosmos 1515 Rocket 4.0 21:17:35 43° SW 21:18:46 60° W 21:23:09 10° N
Cosmos 2084 4.0 21:17:53 15° WSW 21:21:11 54° NW 21:25:22 10° NNE
ARIANE 5 R/B 3.8 21:20:40 28° SW 21:21:50 33° W 21:25:47 10° NNW
X-37B 2.8 21:18:53 10° W 21:20:09 21° W 21:20:09 21° W
USA 308 3.9 21:19:21 10° NW 21:23:27 42° NNE 21:24:24 36° ENE
Cosmos 1869 Rocket 3.9 21:19:51 10° N 21:23:54 52° ENE 21:23:54 52° ENE
Cosmos 1536 3.6 21:20:25 10° N 21:23:48 41° NE 21:23:48 41° NE
Meteor 1-10 Rocket 4.1 21:22:59 48° S 21:24:38 89° W 21:30:18 10° N
Cosmos 1943 Rocket 3.9 21:30:25 18° E 21:30:25 18° E 21:32:58 10° NE
Cosmos 2154 Rocket 4.0 21:25:09 10° N 21:31:31 74° E 21:33:03 53° SSE
Cosmos 1812 4.0 21:31:31 32° WSW 21:32:15 35° WNW 21:35:50 10° N
ALOS 2 4.5 21:38:42 19° ENE 21:38:46 19° ENE 21:41:53 10° NNE
Cosmos 990 Rocket 4.5 21:40:01 45° E 21:40:01 45° E 21:44:28 10° NNE
Cosmos 2184 Rocket 4.1 21:33:17 10° NNW 21:39:29 68° W 21:41:19 46° SSW
NOSS 3-4 (A) 3.9 21:37:26 10° NW 21:44:28 77° NE 21:47:02 45° SE
NOSS 3-4 (C) 3.9 21:37:32 10° NW 21:44:34 77° NE 21:47:09 45° SE
ATLAS 5 CENTAUR R/B 3.7 21:40:49 10° WNW 21:45:49 28° WSW 21:47:13 26° SW
Cosmos 2074 Rocket 4.4 21:41:15 10° NNW 21:47:25 58° W 21:49:23 41° SSW
Cosmos 1666 4.3 21:49:19 10° NNW 21:52:11 28° W 21:52:11 28° W
Cosmos 2112 Rocket 4.4 21:48:07 10° NNW 21:53:22 51° ENE 21:53:50 50° E
Nadezhda 1 Rocket 4.0 21:51:51 50° SSW 21:53:38 78° W 21:59:56 10° N
Cosmos 1833 Rocket 3.2 21:49:37 10° NW 21:54:59 45° WSW 21:55:42 43° SW
Cosmos 1238 Rocket 4.2 21:51:07 10° N 21:57:14 48° ENE 21:57:51 46° E
Cosmos 1743 3.9 21:54:13 10° N 21:56:52 38° NNE 21:56:52 38° NNE
ATLAS 2AS CENTAUR R/B 3.1 21:50:47 10° NNW 21:58:06 59° NE 22:00:32 40° ESE
USA 215 4.2 21:55:02 14° E 22:00:18 44° NNE 22:06:25 10° NW
Cosmos 2297 4.0 22:03:58 50° E 22:03:58 50° E 22:08:55 10° NE
USA 305 3.5 22:01:19 10° NW 22:04:41 53° NW 22:04:41 53° NW
Cosmos 2181 Rocket 4.2 22:07:22 51° ESE 22:07:44 51° E 22:13:38 10° NNE
Cosmos 158 Rocket 4.5 22:11:07 10° NNW 22:15:27 46° W 22:15:27 46° W
SJ 16-02 2.9 22:15:15 27° W 22:16:20 30° WNW 22:20:15 10° N
Cosmos 1733 Rocket 3.7 22:12:39 10° N 22:16:02 49° NNE 22:16:02 49° NNE
Cosmos 2228 Rocket 4.3 22:17:34 33° W 22:17:51 33° WNW 22:21:54 10° N
Meteor 1-27 Rocket 4.4 22:18:37 42° WSW 22:20:03 51° WNW 22:25:48 10° N
Cosmos 1680 Rocket 3.5 22:16:14 10° NNW 22:21:27 80° W 22:21:27 80° W
Cosmos 2341 Rocket 3.9 22:15:53 10° N 22:22:19 89° W 22:23:08 70° S
Cosmos 1937 Rocket 3.7 22:24:06 58° ENE 22:24:06 58° ENE 22:28:28 10° NNE
Cosmos 2366 rocket 4.1 22:17:25 10° N 22:23:31 60° E 22:24:07 58° ESE
USA 306 4.1 22:20:26 10° NW 22:23:04 37° WNW 22:23:04 37° WNW
Cosmos 1818 4.3 22:21:28 10° NNW 22:26:45 45° NE 22:27:40 41° ENE
Cosmos 967 Rocket 4.3 22:27:43 70° ESE 22:27:44 70° ESE 22:33:59 10° NE
Cosmos 2082 Rocket 2.7 22:23:01 10° NW 22:28:19 47° WSW 22:28:19 47° WSW
CZ-4C R/B 3.8 22:28:30 10° NW 22:35:15 36° WSW 22:36:28 34° SW
Meteor 1-19 Rocket 4.1 22:40:49 80° NE 22:40:49 80° NE 22:45:58 10° NNE
Cosmos 2218 Rocket 3.8 22:35:15 10° N 22:41:33 85° E 22:42:06 76° SSE
Terra 4.1 22:41:15 13° W 22:41:37 13° W 22:43:56 10° WNW
Cosmos 489 Rocket 4.4 22:42:32 10° NNW 22:48:48 75° ENE 22:49:22 70° ESE
Cosmos 2278 Rocket 4.4 22:48:25 10° W 22:52:39 21° NW 22:56:54 10° N
Cosmos 1862 Rocket 4.5 22:57:00 44° NNW 22:57:00 44° NNW 23:00:15 10° N
Cosmos 1898 Rocket 4.2 22:57:39 45° W 22:58:10 46° WNW 23:03:19 10° N
Nadezhda 3 Rocket 4.4 23:02:11 49° E 23:02:30 50° E 23:08:29 10° NNE
Cosmos 2369 Rocket 2.5 23:03:27 57° ENE 23:03:27 57° ENE 23:08:22 10° NNE
COBE Rocket 4.1 23:07:04 68° NW 23:07:04 68° NW 23:11:36 10° NNW
RESURS DK-1 4.1 23:06:29 10° N 23:09:53 27° NE 23:09:53 27° NE
SL-8 Rocket 4.4 23:05:01 10° NNW 23:11:05 49° W 23:11:34 48° WSW
Cosmos 1943 Rocket 2.4 23:11:55 62° W 23:12:13 63° WNW 23:17:48 10° NNE
Cosmos 1975 4.4 23:09:54 10° NNW 23:12:12 31° NNW 23:12:12 31° NNW
ALOS 2 3.9 23:16:05 35° NW 23:16:05 35° NW 23:19:01 10° NNW
Cosmos 1867 4.4 23:18:57 40° E 23:18:57 40° E 23:23:00 10° NE
Cosmos 1607 4.3 23:19:25 52° ESE 23:19:25 52° ESE 23:25:25 10° NE
SL-08 R/B 4.3 23:13:02 10° N 23:19:16 87° W 23:19:37 81° S
DNEPR-1 R/B 4.4 23:19:56 59° WNW 23:20:22 61° NW 23:25:21 10° NNE
Meteor 2-4 Rocket 3.7 23:20:31 79° W 23:20:32 79° W 23:26:15 10° N
Cosmos 44 4.3 23:16:49 10° NW 23:20:48 42° WNW 23:20:48 42° WNW
Cosmos 2263 4.4 23:22:38 62° E 23:22:38 62° E 23:27:58 10° NNE
Okean 1-7 4.0 23:30:15 44° N 23:30:15 44° N 23:33:16 10° N
Cosmos 372 Rocket 4.3 23:30:36 56° NW 23:30:36 56° NW 23:35:23 10° NNE
ATLAS CENTAUR R/B 3.8 23:33:01 14° ENE 23:33:01 14° ENE 23:33:43 10° NE
Cosmos 1125 Rocket 4.0 23:35:51 50° ENE 23:35:51 50° ENE 23:40:17 10° NNE
Cosmos 1656 Rocket 3.7 23:39:04 70° ENE 23:39:04 70° ENE 23:44:09 10° NNE
SeaSat 1 2.6 23:33:45 10° NNE 23:38:19 70° NNW 23:38:19 70° NNW
Cosmos 494 Rocket 4.3 23:35:03 10° NNW 23:40:12 60° ENE 23:40:14 60° ENE
USA 215 3.1 23:42:21 68° S 23:43:04 76° SW 23:49:38 10° NW
Cosmos 2239 Rocket 4.3 23:37:59 10° N 23:44:19 90° SW 23:44:52 76° S
Cosmos 1833 4.2 23:41:20 10° NNW 23:47:06 74° ENE 23:47:33 70° ESE
ATLAS 2AS CENTAUR R/B 3.6 23:42:23 10° NW 23:47:56 32° W 23:47:56 32° W
CZ-2D R/B 3.8 23:49:08 10° NE 23:53:12 21° E 23:53:55 21° ESE
